Location: Pine Mountain Observatory
(43.7910°N, 120.9377°W)
Time: 06:03:25
(UTC-07:00)

APEX - Visible Passes

Search period start: 22 May 2015 00:00
Search period end: 01 June 2015 00:00
Orbit: 336 x 1321 km, 69.9° (Epoch: 22 May)

Date Brightness Start Highest point End Pass type
(mag) Time Alt. Az. Time Alt. Az. Time Alt. Az.
22 May 7.0 04:15:15 10° N 04:19:18 20° NE 04:22:47 10° E visible
22 May 7.7 22:32:51 10° W 22:38:19 19° NW 22:43:07 10° N visible
23 May 7.0 03:56:24 10° N 04:00:07 18° NE 04:03:23 10° E visible
23 May 7.7 22:13:26 10° W 22:19:09 20° NW 22:24:08 10° N visible
24 May 7.0 03:37:32 10° N 03:40:53 16° NE 03:43:54 10° ENE visible
24 May 7.6 21:54:00 10° W 21:59:56 21° NW 22:05:07 10° N visible
25 May 7.1 03:18:41 10° N 03:21:37 15° NE 03:24:21 10° ENE visible
25 May 7.6 21:34:34 10° W 21:40:43 23° NW 21:46:05 10° N visible
26 May 7.1 02:59:51 10° N 03:02:19 13° NNE 03:04:41 10° ENE visible
26 May 3.8 04:42:28 10° NNW 04:47:41 75° ENE 04:51:34 10° SSE visible
26 May 7.5 21:15:06 10° W 21:21:28 24° NW 21:27:00 10° N visible
27 May 7.2 02:41:05 10° N 02:42:59 12° NNE 02:44:53 10° NE visible
27 May 4.1 04:23:21 10° NNW 04:28:29 65° ENE 04:32:18 10° SE visible
27 May 7.4 20:55:39 10° W 21:02:12 26° NW 21:07:53 10° N visible
28 May 7.3 02:22:31 10° NNE 02:23:37 11° NNE 02:24:50 10° NE visible
28 May 4.3 04:04:13 10° NNW 04:09:15 56° ENE 04:13:01 10° SE visible
29 May 4.6 03:45:04 10° NNW 03:49:58 48° NE 03:53:41 10° SE visible
30 May 4.8 03:25:53 10° NNW 03:30:38 42° NE 03:34:17 10° SE visible
31 May 5.1 03:06:41 10° NNW 03:11:16 36° NE 03:14:50 10° ESE visible
31 May 4.8 04:51:30 10° NW 04:54:40 19° W 04:57:14 10° SW visible
